Regional Weather Roundup
Issued by NWS Little Rock, AR

Home | Current Version | Previous Version | Graphics & Text | Print | Product List | Glossary On
Versions: 1 2 3 4 5 6 7 8 9 10 11 12 13 14 15 16 17 18 19 20 21 22 23 24 25 26 27 28 29 30 31 32 33 34 35 36 37 38 39 40 41 42 43 44 45 46 47 48 49 50
000
ASUS44 KLZK 282105
RWRLZK

WEATHER ROUNDUP FOR ARKANSAS
NATIONAL WEATHER SERVICE LITTLE ROCK AR
400 PM CDT THU JUL 28 2016

NOTE: "FAIR" INDICATES FEW OR NO CLOUDS BELOW 12,000 FEET WITH NO
SIGNIFICANT WEATHER AND/OR OBSTRUCTIONS TO VISIBILITY.

ARZ001-003-010-029-282200-
NORTHWEST ARKANSAS

CITY           SKY/WX    TMP DP  RH WIND       PRES   REMARKS
FAYETTEVILLE   MOSUNNY   90  71  53 N3        29.95F HX  96
FORT SMITH     MOSUNNY   96  68  39 NW6       29.89F HX 101
HARRISON       SUNNY     91  66  43 NW5       29.94F HX  93
BENTONVILLE    MOSUNNY   90  70  51 W3        29.96F HX  95
ROGERS         CLOUDY    89  73  59 W3        29.96F HX  97
SILOAM SPGS    PTSUNNY   91  66  43 CALM      29.97  HX  94
HIGHFILL       MOSUNNY   90  75  61 SW6       29.95F HX 100
SPRINGDALE     PTSUNNY   90  72  55 S3        29.97F HX  96
$$

ARZ004-005-016-282200-
NORTH CENTRAL ARKANSAS

CITY           SKY/WX    TMP DP  RH WIND       PRES   REMARKS
BATESVILLE     CLOUDY    90  75  62 S9        29.89F HX 100
FLIPPIN        MOSUNNY   91  72  52 CALM      29.88F HX  98
MTN HOME       SUNNY     90  73  57 SW5       29.90F HX  98
$$

ARZ040-041-282200-
WEST CENTRAL ARKANSAS

CITY           SKY/WX    TMP DP  RH WIND       PRES   REMARKS
MENA             N/A    N/A N/A N/A MISG        N/A
MOUNT IDA      MOSUNNY   88  76  67 VRB5      29.93F HX  99
$$

ARZ009-017-025-026-028-282200-
NORTHEAST ARKANSAS

CITY           SKY/WX    TMP DP  RH WIND       PRES   REMARKS
CORNING          N/A     91  79  66 S10       29.87F HX 107
JONESBORO      MOSUNNY   91  75  59 SW10      29.88F HX 101
NEWPORT        CLOUDY    90  78  67 S12       29.90F HX 104
WALNUT RIDGE   PTSUNNY   84  75  74 SW16      29.88S HX  92
BLYTHEVILLE    CLOUDY    89  77  67 S9        29.90F HX 101
NW BLYTHEVILLE PTSUNNY   91  77  62 SW8       29.89F HX 105
$$

ARZ022-023-033-042-044-282200-
CENTRAL ARKANSAS

CITY           SKY/WX    TMP DP  RH WIND       PRES   REMARKS
LITTLE ROCK    PTSUNNY   91  75  59 SW12      29.92F HX 101
N LITTLE ROCK    N/A     88  77  69 SW8G16    29.88F HX 100
SEARCY         MOSUNNY   92  79  65 S12       29.90F HX 108
HOT SPRINGS    MOSUNNY   89  74  60 SW7       29.94F HX  98
RUSSELLVILLE   MOSUNNY   92  73  53 CALM      29.89F HX 100
$$

ARZ036-282200-
EAST ARKANSAS

CITY           SKY/WX    TMP DP  RH WIND       PRES   REMARKS
WEST MEMPHIS   PTSUNNY   87  77  72 SW8       29.90F HX  99
$$

ARZ050-053-066-070-073-282200-
SOUTHWEST ARKANSAS

CITY           SKY/WX    TMP DP  RH WIND       PRES   REMARKS
ARKADELPHIA    MOCLDY    83  76  79 SW8       29.95F HX  91
CAMDEN         CLOUDY    77  72  83 S7        29.96F
TEXARKANA      CLOUDY    76  74  93 S6        29.98S
EL DORADO      PTSUNNY   76  74  93 S6        29.98F
DE QUEEN       CLOUDY    85  77  77 SW8       29.94F HX  95
$$

ARZ056-057-069-282200-
SOUTHEAST ARKANSAS

CITY           SKY/WX    TMP DP  RH WIND       PRES   REMARKS
PINE BLUFF     MOSUNNY   82  74  76 SW14      29.94F HX  88
STUTTGART      CLOUDY    88  75  66 S14       29.92F HX  97
MONTICELLO     CLOUDY    79  73  82 SW7       29.98F

$$





USA.gov is the U.S. government's official web portal to all federal, state and local government web resources and services.